Date,TemperatureHighF,TemperatureAvgF,TemperatureLowF,DewpointHighF,DewpointAvgF,DewpointLowF,HumidityHigh,HumidityAvg,HumidityLow,PressureMaxIn,PressureMinIn,WindSpeedMaxMPH,WindSpeedAvgMPH,GustSpeedMaxMPH,PrecipitationSumIn
2013-10-1,74,68,66,64,62,58,91,80,59,30.09,30.00,13,3,13,0.00
2013-10-2,78,72,67,70,66,61,91,82,71,30.10,30.01,12,3,12,0.00
2013-10-3,79,74,71,71,69,62,93,86,59,30.12,30.07,12,2,12,0.00
2013-10-4,80,74,69,73,69,65,96,83,63,30.12,30.05,11,1,11,0.01
2013-10-5,81,75,72,72,70,65,93,85,61,30.10,30.03,12,2,12,0.00
2013-10-6,81,76,71,74,71,69,96,85,70,30.07,29.97,15,2,15,0.01
2013-10-7,82,78,75,74,73,71,93,85,72,29.97,29.85,20,4,20,0.01
2013-10-8,76,70,67,74,68,64,95,93,91,30.05,29.88,37,16,37,0.73
2013-10-9,73,70,67,72,68,65,98,96,93,30.01,29.80,39,18,39,0.87
2013-10-10,73,68,64,72,67,62,98,96,93,29.83,29.73,24,12,24,0.01
2013-10-11,67,65,63,64,63,62,97,94,91,29.91,29.79,19,10,19,0.02
2013-10-12,69,67,66,67,65,63,94,92,90,30.00,29.88,10,3,12,0.00
2013-10-13,74,70,69,72,68,-100,96,93,92,30.07,29.98,21,1,21,0.00
2013-10-14,72,71,69,70,68,66,95,91,86,30.10,30.04,30,15,30,0.01
2013-10-15,72,70,68,70,68,65,95,93,89,30.06,29.93,28,15,28,0.00
2013-10-16,71,70,68,69,68,67,94,93,92,29.95,29.90,19,8,19,0.00
2013-10-17,74,70,66,69,67,65,98,92,79,29.94,29.84,15,4,15,0.00
2013-10-18,72,71,70,70,68,65,94,90,84,29.98,29.85,16,7,16,0.00
2013-10-19,74,72,69,72,70,68,97,95,91,29.91,29.81,15,3,15,0.34
2013-10-20,72,66,62,71,60,54,96,82,75,30.08,29.83,24,12,24,0.00
2013-10-21,68,65,60,63,58,51,88,78,67,30.11,29.95,16,7,16,0.00
2013-10-22,67,66,65,63,59,52,88,78,66,29.96,29.80,19,6,19,0.01
2013-10-23,70,64,60,62,58,50,96,83,66,29.89,29.61,32,9,32,0.66
2013-10-24,61,55,51,52,44,40,80,66,51,30.13,29.89,31,12,31,0.00
2013-10-25,57,54,50,45,39,34,75,58,45,30.30,30.13,26,12,26,0.00
2013-10-26,59,56,54,53,45,38,80,67,56,30.30,30.07,17,7,17,0.00
2013-10-27,62,57,52,50,48,45,84,70,60,30.13,30.04,15,3,15,0.00
2013-10-28,69,60,52,58,54,48,94,81,54,30.23,30.13,9,1,9,0.00
2013-10-29,62,62,61,58,58,57,87,86,84,30.23,30.21,4,1,4,0.00
2013-10-30,70,67,63,61,58,53,88,74,59,30.29,30.17,8,1,8,0.00
2013-10-31,74,68,59,69,64,58,96,89,78,30.20,29.99,21,3,21,0.00